الصفحة الرئيسية
METAR-TAF:

METAR-TAF

مطار :

Kingman, أريزونا, الولايات المتحدة

دائرة عرض: 35-15-28N, خط طول: 113-55-59W, ارتفاع: 1050 متر

مراقبة الطقس الحالي

تاريخ ووقت الإصدار 39 دقيقة قبل الساعة 17:51UTC
ريح 9 عقدة من الجنوب الغربي
درجة الحرارة 8°درجة مئوية
الرطوبة 61%
ضغط 1016 hPa
الرؤية: 16.1 كم
سماء صافية

METAR: KIGM 161751Z AUTO 23009KT 10SM CLR 08/01 A2999 RMK AO2 SLP131 T00780006 10078 20028 51017

زمن: 11:30 (18:30 UTC)


TAF: مفقودة

أرصاد الطقس والتوقعات من أكثر من 4000 مطار (تقارير الطقس للمطار METAR والتنبؤ بالطقس بالمطارTAF).

المحطات المتاحة هي النقط الصفراء والحمراء على الخريطة.

حرك المؤشر فوق النقطة لمعرفة اسم المحطة.

ثم انقر لمعرفة أرصاد وتوقعات الطقس.

لتغيير الخارطة: اضغط على الأزرار الخضراء مع رمز الصليب الأسود للتكبير. على الزر الأخضر مع شرطة للتصغير، أو على الأسهم الخضراء للخرائط المجاورة.


METAR-TAF: